Weather History for San Diego, CA

Change the Weather History Date:

Sunday, November 25, 2012

  Actual Average Record
Temperature  
Mean Temperature 59 °F 59 °F  
Max Temperature 61 °F 67 °F 89 °F (1953)
Min Temperature 56 °F 51 °F 39 °F (1906)
Degree Days  
Heating Degree Days 6 6  
Month to date heating degree days 77 93  
Since 1 July heating degree days 81 114  
Cooling Degree Days 0 0  
Month to date cooling degree days 16 11  
Year to date cooling degree days 899 718  
Growing Degree Days 8 (Base 50)    
Moisture  
Dew Point 54 °F    
Average Humidity 89    
Maximum Humidity 100    
Minimum Humidity 78    
Precipitation  
Precipitation 0.00 in 0.04 in 2.04 in (1985)
Month to date precipitation 0.18 0.80  
Year to date precipitation 4.34 8.60  
Since 1 July precipitation 0.88 1.57  
Snow  
Snow 0.00 in - - ()
Month to date snowfall 0.0  
Year to date snowfall 0.0  
Since 1 July snowfall 0.0  
Snow Depth 0.00 in    
Sea Level Pressure  
Sea Level Pressure 29.96 in    
Wind  
Wind Speed 4 mph (South)    
Max Wind Speed 9 mph    
Max Gust Speed 17 mph    
Visibility 6 miles    
Events      
T = Trace of Precipitation, MM = Missing Value Source: NWS Daily Summary

Daily Weather History Graph

Daily Weather History Graph

Search for Another Location

Airport:

Trip Planner

Search our weather history database for the weather conditions in past years. The results will help you decide how hot, cold, wet, or windy it might be!

Date:

Astronomy

Nov. 25, 2012 Rise Set
Actual Time 6:28 AM PST 4:43 PM PST
Civil Twilight 6:01 AM PST 5:09 PM PST
Nautical Twilight 5:31 AM PST 5:40 PM PST
Astronomical Twilight 5:01 AM PST 6:09 PM PST
Moon 2:58 PM PST (11/25) 3:52 AM PST (11/25)
Length of Visible Light 11h 08m
Length of Day
10h 14m
Waxing Gibbous, 93% of the Moon is Illuminated
Nov 25
Waxing Gibbous
Nov 28
Full
Dec 6
Last Quarter
Dec 13
New
Dec 19
First Quarter

Hourly Weather History & Observations

Time (PST) Temp. Dew Point Humidity Pressure Visibility Wind Dir Wind Speed Gust Speed Precip Events Conditions
12:21 AM 57.2 °F 55.4 °F 94% 29.96 in 2.5 mi Calm Calm - N/A   Overcast
12:51 AM 57.9 °F 55.0 °F 90% 29.96 in 2.0 mi Calm Calm - N/A   Overcast
1:13 AM 57.2 °F 55.4 °F 94% 29.95 in 2.0 mi Calm Calm - N/A   Overcast
1:51 AM 57.9 °F 55.0 °F 90% 29.95 in 2.0 mi Calm Calm - N/A   Overcast
2:31 AM 57.2 °F 55.4 °F 94% 29.95 in 1.8 mi Calm Calm - N/A   Overcast
2:51 AM 57.0 °F 55.0 °F 93% 29.94 in 1.8 mi Calm Calm - N/A   Overcast
3:51 AM 57.9 °F 55.0 °F 90% 29.94 in 1.8 mi SE 3.5 mph - N/A   Overcast
4:51 AM 57.0 °F 55.0 °F 93% 29.95 in 1.5 mi South 6.9 mph - N/A   Overcast
5:13 AM 57.2 °F 55.4 °F 94% 29.95 in 1.2 mi Calm Calm - N/A   Overcast
5:51 AM 55.9 °F 55.0 °F 97% 29.96 in 1.2 mi Variable 3.5 mph - N/A   Overcast
6:51 AM 55.9 °F 54.0 °F 93% 29.98 in 1.2 mi SE 4.6 mph - N/A   Overcast
7:51 AM 55.9 °F 53.1 °F 90% 29.99 in 1.2 mi South 4.6 mph - N/A   Overcast
8:12 AM 55.4 °F 53.6 °F 94% 29.99 in 1.5 mi SSW 4.6 mph - N/A   Overcast
8:34 AM 55.4 °F 53.6 °F 94% 29.99 in 2.0 mi South 6.9 mph - N/A   Overcast
8:51 AM 55.9 °F 53.1 °F 90% 29.99 in 2.0 mi SSE 4.6 mph - N/A   Overcast
9:36 AM 55.4 °F 53.6 °F 94% 30.00 in 2.0 mi SSE 6.9 mph - N/A   Overcast
9:51 AM 55.9 °F 53.1 °F 90% 30.00 in 3.0 mi South 5.8 mph - N/A   Overcast
10:32 AM 57.2 °F 53.6 °F 88% 30.00 in 3.0 mi South 4.6 mph - N/A   Overcast
10:51 AM 57.9 °F 53.1 °F 84% 29.99 in 4.0 mi SSW 9.2 mph - N/A   Haze
11:51 AM 57.9 °F 53.1 °F 84% 29.96 in 6.0 mi South 4.6 mph - N/A   Haze
12:51 PM 60.1 °F 53.1 °F 78% 29.94 in 9.0 mi SW 4.6 mph - N/A   Mostly Cloudy
1:51 PM 61.0 °F 54.0 °F 78% 29.94 in 10.0 mi WSW 5.8 mph - N/A   Mostly Cloudy
2:51 PM 61.0 °F 54.0 °F 78% 29.92 in 10.0 mi Calm Calm - N/A   Mostly Cloudy
3:38 PM 60.8 °F 53.6 °F 77% 29.92 in 10.0 mi South 5.8 mph - N/A   Mostly Cloudy
3:51 PM 61.0 °F 54.0 °F 78% 29.92 in 10.0 mi Calm Calm - N/A   Scattered Clouds
4:51 PM 60.1 °F 54.0 °F 80% 29.91 in 10.0 mi South 4.6 mph - N/A   Scattered Clouds
5:51 PM 59.0 °F 53.1 °F 81% 29.93 in 10.0 mi South 6.9 mph - N/A   Scattered Clouds
6:51 PM 57.9 °F 53.1 °F 84% 29.95 in 10.0 mi SW 4.6 mph - N/A   Scattered Clouds
7:04 PM 59.0 °F 53.6 °F 82% 29.95 in 10.0 mi SW 5.8 mph - N/A   Mostly Cloudy
7:51 PM 59.0 °F 54.0 °F 83% 29.96 in 10.0 mi Calm Calm - N/A   Mostly Cloudy
8:51 PM 59.0 °F 54.0 °F 83% 29.98 in 10.0 mi Calm Calm - N/A   Mostly Cloudy
9:51 PM 59.0 °F 53.1 °F 81% 30.00 in 10.0 mi Calm Calm - N/A   Mostly Cloudy
10:51 PM 59.0 °F 53.1 °F 81% 30.00 in 10.0 mi Calm Calm - N/A   Mostly Cloudy
11:51 PM 59.0 °F 52.0 °F 78% 29.99 in 10.0 mi South 5.8 mph - N/A   Overcast